Simultaneous Nadir Overpasses (SNOs) Predictions

Prediction of SNOs between LANDSAT-8 and METOP-B Satellite Orbit:

Table of predicted SNOs for the next 14.0 days since TLE Epoch: 9/14/2019
Index Date (LANDSAT-8) Time (LANDSAT-8) Lat,Lon (LANDSAT-8) SZA (LANDSAT-8 ) Date (METOP-B) Time (METOP-B) Lat,Lon (METOP-B) SZA (METOP-B ) Distance(km) Time Diff (sec)
1 09/15/2019 12:53:03 -81.16,-152.62 99.61 09/15/2019 12:52:17 -81.16,-152.57 99.63 0.82 46
2 09/15/2019 13:42:28 81.19, 15.43 80.47 09/15/2019 13:42:56 81.18, 15.32 80.46 2.02 28
3 09/18/2019 08:27:19 -81.16, -86.20 98.51 09/18/2019 08:26:38 -81.16, -86.25 98.53 0.76 41
4 09/18/2019 09:16:44 81.18, 81.83 81.57 09/18/2019 09:17:16 81.19, 81.98 81.60 2.68 32
5 09/21/2019 04:01:36 -81.16, -19.71 97.39 09/21/2019 04:00:59 -81.17, -19.56 97.38 2.75 37
6 09/21/2019 04:51:01 81.19, 148.30 82.69 09/21/2019 04:51:38 81.18, 148.25 82.70 0.85 37
7 09/23/2019 23:35:53 -81.17, 46.84 96.25 09/23/2019 23:35:21 -81.17, 46.74 96.28 1.93 32
8 09/24/2019 00:25:18 81.19,-145.16 83.82 09/24/2019 00:25:59 81.19,-145.11 83.84 0.90 41
9 09/26/2019 19:10:10 -81.16, 113.10 95.16 09/26/2019 19:09:42 -81.16, 113.02 95.18 1.49 28




NCC Satellite Simultaneous Nadir Overpasses (SNOs) Prediction Service
